EDT,Max TemperatureF,Mean TemperatureF,Min TemperatureF,Max Dew PointF,MeanDew PointF,Min DewpointF,Max Humidity, Mean Humidity, Min Humidity, Max Sea Level PressureIn, Mean Sea Level PressureIn, Min Sea Level PressureIn, Max VisibilityMiles, Mean VisibilityMiles, Min VisibilityMiles, Max Wind SpeedMPH, Mean Wind SpeedMPH, Max Gust SpeedMPH,PrecipitationIn, CloudCover, Events, WindDirDegrees
2012-10-1,65,54,43,52,48,42,100,76,52,29.94,29.87,29.78,10,10,7,12,4,14,0.09,4,Rain,69
2012-10-2,78,66,54,67,61,52,100,84,67,29.88,29.79,29.74,10,8,1,14,2,18,0.28,7,Rain,102
2012-10-3,72,65,57,66,59,52,100,77,53,30.15,30.04,29.88,10,8,5,14,4,20,0.00,4,,223
2012-10-4,74,64,53,56,54,52,100,75,49,30.21,30.17,30.14,10,9,6,15,4,21,0.00,1,,220
2012-10-5,74,64,53,59,56,52,87,72,57,30.14,30.04,29.92,10,10,8,14,5,20,0.01,3,,217
2012-10-6,57,51,44,52,41,32,93,66,39,30.12,30.02,29.91,10,9,2,16,7,21,0.30,5,Rain,311
2012-10-7,49,45,41,41,38,36,96,81,66,30.20,30.13,30.09,10,10,10,13,2,29,T,8,Rain,334
2012-10-8,51,43,35,41,37,35,100,78,56,30.27,30.22,30.19,10,6,1,12,2,20,0.00,3,,179
2012-10-9,59,45,30,42,34,28,100,70,40,30.24,30.16,30.02,10,5,0,12,3,16,0.00,3,Fog,190
2012-10-10,57,46,34,45,37,30,93,69,44,30.22,30.03,29.94,10,10,6,18,7,24,T,3,,248
2012-10-11,58,43,28,33,30,27,92,63,33,30.33,30.25,30.17,10,10,10,14,3,17,0.00,0,,222
2012-10-12,57,46,34,39,33,26,92,62,32,30.41,30.32,30.20,10,10,10,13,4,18,0.00,3,,2
2012-10-13,69,49,29,51,38,28,92,66,40,30.40,30.27,30.06,10,10,10,14,6,18,0.00,1,,172
2012-10-14,77,68,59,59,54,51,84,65,46,30.05,29.90,29.70,10,10,10,29,14,40,0.01,5,Rain,189
2012-10-15,67,58,49,57,48,44,93,82,71,29.94,29.83,29.68,10,8,2,24,6,38,0.09,8,Rain,266
2012-10-16,60,49,38,42,39,36,100,70,40,30.02,29.95,29.87,10,10,10,12,2,14,0.00,3,,231
2012-10-17,73,58,43,50,44,38,76,59,41,29.88,29.81,29.68,10,10,10,16,7,20,0.00,2,,158
2012-10-18,61,53,44,50,46,41,92,71,49,29.79,29.68,29.60,10,9,2,21,9,29,0.10,4,Rain,172
2012-10-19,63,54,44,46,42,32,93,63,32,29.75,29.68,29.59,10,9,2,28,10,38,0.20,5,Rain,203
2012-10-20,54,49,43,46,42,38,96,78,59,29.98,29.81,29.71,10,10,5,14,7,18,0.01,7,Rain,220
2012-10-21,60,47,33,43,36,32,100,73,46,30.16,30.11,30.00,10,6,0,10,2,15,0.00,2,Fog,243
2012-10-22,76,56,36,51,45,35,100,72,43,30.19,30.13,30.07,10,10,9,12,4,15,0.00,1,,184
2012-10-23,76,65,53,53,50,49,89,64,38,30.08,30.05,30.01,10,10,10,14,4,21,0.02,1,Rain,215
2012-10-24,79,67,55,55,52,49,93,66,39,30.14,30.09,30.04,10,10,10,13,4,16,0.02,3,Rain,208
2012-10-25,80,64,47,52,48,46,93,63,32,30.10,30.04,29.99,10,10,8,14,3,18,0.00,0,,187
2012-10-26,71,61,51,56,49,46,83,70,56,30.10,30.05,29.99,10,10,10,20,7,25,T,4,,357
2012-10-27,51,48,45,46,45,43,93,88,83,30.07,30.03,29.99,10,8,2,14,7,22,0.31,8,Rain,1
2012-10-28,47,43,39,45,40,36,93,88,82,30.04,29.96,29.91,10,8,3,17,10,25,0.75,8,Rain,355
2012-10-29,42,39,36,38,37,34,92,87,82,29.93,29.77,29.44,10,10,7,28,15,41,0.62,8,Rain,332
2012-10-30,43,38,33,38,35,32,96,89,82,29.50,29.32,29.24,10,8,2,25,16,36,0.15,8,Rain-Snow,299
2012-10-31,41,39,37,38,36,35,92,86,79,29.73,29.61,29.49,10,8,2,16,9,22,0.02,8,Rain,266